TimeCST,TemperatureF,Dew PointF,Humidity,Sea Level PressureIn,VisibilityMPH,Wind Direction,Wind SpeedMPH,Gust SpeedMPH,PrecipitationIn,Events,Conditions,WindDirDegrees,DateUTC
12:52 AM,15.8,10.4,79,30.33,10.0,Calm,Calm,-,N/A,,Clear,0,2013-02-21 06:52:00
1:52 AM,15.1,10.0,80,30.38,10.0,East,4.6,-,N/A,,Clear,90,2013-02-21 07:52:00
2:52 AM,15.1,9.0,77,30.38,10.0,ENE,3.5,-,N/A,,Clear,60,2013-02-21 08:52:00
3:52 AM,14.0,8.6,79,30.31,10.0,ENE,6.9,-,N/A,,Clear,70,2013-02-21 09:52:00
4:52 AM,14.0,10.0,84,30.37,10.0,ESE,4.6,-,N/A,,Clear,110,2013-02-21 10:52:00
5:52 AM,12.9,9.0,84,30.35,10.0,East,4.6,-,N/A,,Clear,80,2013-02-21 11:52:00
6:52 AM,14.0,10.0,84,30.32,10.0,ENE,10.4,-,N/A,,Partly Cloudy,60,2013-02-21 12:52:00
7:52 AM,16.0,10.0,77,30.34,10.0,East,8.1,-,N/A,,Clear,100,2013-02-21 13:52:00
8:52 AM,17.1,10.9,77,30.32,10.0,East,15.0,-,N/A,,Clear,90,2013-02-21 14:52:00
9:52 AM,19.0,10.9,71,30.33,10.0,East,13.8,-,N/A,,Clear,100,2013-02-21 15:52:00
10:52 AM,21.0,12.9,71,30.31,10.0,East,12.7,-,N/A,,Clear,100,2013-02-21 16:52:00
11:52 AM,23.0,15.8,74,30.20,10.0,East,18.4,-,N/A,,Clear,80,2013-02-21 17:52:00
12:08 PM,24.8,15.8,69,30.20,10.0,East,13.8,23.0,N/A,,Overcast,90,2013-02-21 18:08:00
12:52 PM,26.1,17.1,69,30.20,10.0,East,18.4,25.3,N/A,,Overcast,90,2013-02-21 18:52:00
1:52 PM,25.0,19.0,78,30.18,10.0,East,18.4,28.8,N/A,,Overcast,90,2013-02-21 19:52:00
2:40 PM,26.6,19.4,74,30.11,10.0,East,15.0,27.6,N/A,,Overcast,90,2013-02-21 20:40:00
2:52 PM,26.1,19.9,78,30.15,10.0,East,20.7,28.8,N/A,,Overcast,90,2013-02-21 20:52:00
3:52 PM,25.0,19.9,81,30.11,10.0,East,17.3,28.8,N/A,,Overcast,80,2013-02-21 21:52:00
4:52 PM,25.0,21.0,85,30.07,6.0,East,24.2,27.6,N/A,,Overcast,80,2013-02-21 22:52:00
5:11 PM,24.8,21.2,86,30.01,7.0,East,21.9,31.1,0.00,,Overcast,80,2013-02-21 23:11:00
5:44 PM,24.8,21.2,86,30.00,1.8,East,23.0,31.1,0.00,Snow,Light Snow,80,2013-02-21 23:44:00
5:52 PM,24.1,21.9,91,30.03,1.2,ENE,19.6,31.1,0.00,Snow,Light Snow,70,2013-02-21 23:52:00
6:27 PM,24.8,21.2,86,29.97,1.5,ENE,21.9,32.2,0.00,Snow,Snow,70,2013-02-22 00:27:00
6:49 PM,24.8,21.2,86,29.96,4.0,ENE,20.7,31.1,0.00,Snow,Light Snow,70,2013-02-22 00:49:00
6:52 PM,24.1,21.9,91,30.00,4.0,ENE,21.9,31.1,0.00,Snow,Light Snow,70,2013-02-22 00:52:00
7:12 PM,24.8,21.2,86,29.95,2.0,ENE,20.7,28.8,0.00,Snow,Light Snow,70,2013-02-22 01:12:00
7:34 PM,24.8,21.2,86,29.94,2.0,ENE,24.2,33.4,0.00,Snow,Light Snow,70,2013-02-22 01:34:00
7:52 PM,24.1,23.0,96,29.97,1.0,ENE,24.2,34.5,0.00,Snow,Light Snow,70,2013-02-22 01:52:00
8:03 PM,24.8,23.0,93,29.92,0.8,ENE,25.3,32.2,0.00,Snow,Light Snow,70,2013-02-22 02:03:00
8:52 PM,24.1,23.0,96,29.94,0.5,ENE,23.0,28.8,0.00,Snow,Snow,70,2013-02-22 02:52:00
9:52 PM,25.0,24.1,96,29.93,0.2,East,19.6,28.8,0.00,Snow,Heavy Snow,90,2013-02-22 03:52:00
10:12 PM,24.8,24.8,100,29.89,0.5,East,21.9,31.1,0.00,Snow,Snow,90,2013-02-22 04:12:00
10:45 PM,24.8,23.0,93,29.88,0.2,East,17.3,27.6,0.00,Fog-Snow,Snow,90,2013-02-22 04:45:00
10:52 PM,24.1,23.0,96,29.92,0.5,East,17.3,27.6,0.00,Fog-Snow,Light Snow,100,2013-02-22 04:52:00
11:09 PM,24.8,23.0,93,29.87,0.8,East,16.1,25.3,0.00,Snow,Light Snow,90,2013-02-22 05:09:00
11:22 PM,24.8,21.2,86,29.87,1.2,East,16.1,25.3,0.00,Snow,Light Snow,90,2013-02-22 05:22:00
11:52 PM,24.1,21.9,91,29.90,1.0,East,21.9,26.5,0.00,Snow,Light Snow,90,2013-02-22 05:52:00
11:54 PM,24.8,21.2,86,29.86,0.8,East,18.4,26.5,0.00,Snow,Light Snow,90,2013-02-22 05:54:00